sat.trackr.live / text

‹ back to catalog

STARLINK-36172

NORAD 67020 · 2025-293T

PAYLOAD ACTIVE UNKNOWN

§ Identity

Operator
Country
US
Launch date
2025-12-10
Launch site
AFWTR
Launch vehicle
Mass (kg)
RCS (m²)

Purposes: comms

External: N2YO · Heavens-Above · Gunter

§ Orbital elements

Epoch: 2026-05-25T00:50:35.611296Z

Period
96.11 min
Inclination
70.0007°
Eccentricity
0.0002797
Mean motion
14.98325709 rev/d
Perigee alt
570.1 km
Apogee alt
574.0 km
Semi-major
6,950.2 km
B*
-2.6551e-4
RAAN
261.9576°
Arg perigee
273.7558°
Mean anomaly
86.3281°
Rev number
2,631

§ Raw data

STARLINK-361721 67020U 25293T   26145.03513439 -.00003259  00000+0 -26551-3 0  99942 67020  70.0007 261.9576 0002797 273.7558  86.3281 14.98325709 26317

JSON: /api/v1/satellites/67020 · /tle

For live sub-satellite position, see the globe view (requires WebGL).

§ Visibility from observer

Set your observer location to see the next 7 days of passes ≥ 10°. The values pass through the URL so the page stays shareable.

No JS? Fill the form by hand. The geolocation button needs JavaScript.